Location: Newark
(13.6797°N, 8.5297°E)
Time: 13:57:48
(UTC+00:00)

Altair - Pass Details

Date: 25 January 2020
Orbit: 1502 x 1682 km, 47.2° (Epoch: 28 February)

Event Time Altitude Azimuth Distance (km) Brightness Sun altitude
Rises 03:33:00 0° 179° (S) 4,729 10.2 -33.6°
Reaches altitude 10° 03:38:00 10° 157° (SSE) 3,785 9.9 -32.4°
Maximum altitude 03:42:52 15° 126° (SE) 3,442 10.0 -31.3°
Drops below altitude 10° 03:47:47 10° 95° (E) 3,860 10.5 -30.1°
Sets 03:52:54 0° 74° (ENE) 4,881 11.0 -28.9°
